MIDAS 4 DEB, 194

Orbit data source: Space-Track

MIDAS 4 DEB, 194 is space debris in LEO originally from a launch on Sat, 21 Oct 1961 UTC via an ATLAS AGENA B launch vehicle from the Air Force Western Test Range (AFWTR). Debris objects in space refer to the collection of defunct objects orbiting the Earth. Examples of debris include non-operational satellites, rocket bodies, and fragments generated from explosions, collisions, or faulty payload assembly.

Loading next visibility...
Identifier
194, 1961-028C
Orbit
LEO
Country
Flag of USUS
Related business
Manufacturer
MIT-LL
Mission
Spacecraft
Bus & Motor
WESTFORD, Unknown motor
Mass
30 kg wet, 30 kg dry
Launch date (UTC)
1961-10-21 (65 years ago)
Launch vehicle
ATLAS AGENA B
Launch site
Air Force Western Test Range (AFWTR)
Object type
Payload
Rocket body
Debris
Shape & HBR
CYL, 0.3 m
Radar Cross Section
Medium (>0.1 m² and <1 m²)

Expand to show TLE details & history
Last TLE update: 2 days ago

TLE from 2 days ago
0 MIDAS 4 DEB
1 00194U 61028C   26235.53857774  .00000016  00000-0  77149-2 0  9992
2 00194  95.8470 263.2217 0421461 115.3467 249.1644  8.70121888 58991
Epoch: 2026-08-23T12:55Z
TLE epoch observation values (Epoch: 2026-08-23T12:55:33.116Z)
Latitude
-0.00002°
Longitude
97.50053°
Altitude
3,773.877 km
Speed
6.215 km/s
True Right ascension
17h 32m 53s
True Declination
0° 00' 00"
Sunlit
Object was in daylight at epoch
Visualization orbit readout
Latitude
Unknown
Longitude
Unknown
Altitude
Unknown
Speed
Unknown
Apparent Right ascension
Unknown
Apparent Declination
Unknown
Sunlit
N/A
Visualization observer readout
Local Sidereal Time
03:51:25
Azimuth
Unknown
Elevation
Unknown
Doppler factor
Unknown
Orbital elements
Apogee altitude
4,025.475 km
Perigee altitude
3,183.997 km
Semi-major axis
9,982.873 km
Eccentricity
0.04215
Inclination
95.847°
RAAN
263.2217°
Arg. of periapsis
115.3467°
True anomaly
244.73813°
Mean anomaly
249.1644°
Eccentric anomaly
246.94252°
Mean motion
2.176 °/min
Orbital period
165.44 mins
BSTAR
0.0077149
Loading maneuver chart data...
Computing Atmospheric mass density...
Loading historical data...
Loading historical data...
Loading historical data...
Loading historical data...
Loading historical data...
Loading historical data...
Loading historical data...

Documentation

Showing up to 5 results
|